Voltar ao catálogo

KUIPER-00196

AtivoComunicaçõesLEO
NORAD 67144·PAYLOAD·🇺🇸 United States

Lançado Dec 15, 2025 de Cape Canaveral Space Force Station

Loading…

Próximas Passagens (próximas 24 horas)

TLE

AtualizadoSource: CelesTrak SupGP

Época: Sep 14, 2026, 22:16 UTC

1 67144C 25301M   26257.92825232  .00002292  00000+0  30010-3 0  2576
2 67144  51.8965 273.7926 0000536  75.3737 173.4659 14.79916619    19

Acompanhe KUIPER-00196 em tempo real com AllMySat

Download on the App Store